EW1160 Weather Reports


time (UTC)temp
C
wind
direction
speed
KPH
gust
KPH
rain 1hr
cm
rain 24hr
cm
rain mn
cm
humidity
%
barometer
mb
20260509033003 8 178 0.0 0.0 0.00 0.00 0.00 85 1005.6
20260509031505 9 191 0.0 0.0 0.00 0.00 0.00 84 1005.6
20260509030043 9 180 0.0 0.0 0.00 0.00 0.00 83 1005.7
20260509024544 10 170 0.0 0.0 0.00 0.00 0.00 82 1005.8
20260509023026 10 184 0.0 0.0 0.00 0.00 0.00 82 1006.0
20260509021527 10 194 0.0 0.0 0.00 0.00 0.00 81 1005.9
20260509020008 11 174 0.0 0.0 0.00 0.00 0.00 80 1005.9
20260509014508 11 185 0.0 0.0 0.00 0.00 0.00 78 1005.9
20260509013053 11 170 0.0 0.0 0.00 0.00 0.00 77 1005.7
20260509011550 12 166 0.0 0.0 0.00 0.00 0.00 75 1005.5
20260509010043 12 174 0.0 0.0 0.00 0.00 0.00 73 1005.4
20260509004548 13 179 0.0 0.0 0.00 0.00 0.00 71 1005.2
20260509003037 13 172 0.0 0.0 0.00 0.00 0.00 66 1005.2
20260509001537 13 170 0.0 0.0 0.00 0.00 0.00 63 1005.0
20260509000044 14 183 0.0 0.0 0.00 0.00 0.00 61 1005.0
20260508234536 15 193 0.0 0.0 0.00 0.00 0.00 59 1005.0
20260508233036 15 199 0.0 0.0 0.00 0.00 0.00 54 1005.0
20260508231534 16 178 0.0 0.0 0.00 0.00 0.00 46 1005.0
20260508230017 16 204 0.0 0.0 0.00 0.00 0.00 44 1004.9
20260508224516 16 188 0.0 0.0 0.00 0.00 0.00 43 1004.9
20260508223057 16 202 0.0 0.0 0.00 0.00 0.00 45 1005.0
20260508221600 16 207 0.0 0.0 0.00 0.00 0.00 43 1005.1
20260508220042 15 184 0.0 0.0 0.00 0.00 0.00 39 1005.3
20260508214538 16 220 0.0 0.0 0.00 0.00 0.00 40 1005.2
20260508213028 16 178 0.0 0.0 0.00 0.00 0.00 39 1005.4
20260508211518 16 179 0.0 0.0 0.00 0.00 0.00 37 1005.6
20260508210005 16 275 0.0 0.0 0.00 0.00 0.00 39 1005.6
20260508204504 16 275 0.0 0.0 0.00 0.00 0.00 38 1005.8
20260508203003 16 282 0.0 0.0 0.00 0.00 0.00 37 1006.0
20260508201613 16 328 0.0 0.0 0.00 0.00 0.00 39 1006.2
20260508200126 15 239 0.0 0.0 0.00 0.00 0.00 39 1006.4
20260508194555 15 354 0.0 0.0 0.00 0.00 0.00 37 1006.6
20260508193055 15 311 0.0 0.0 0.00 0.00 0.00 36 1006.8
20260508191550 14 12 0.0 0.0 0.00 0.00 0.00 40 1007.0
20260508190051 13 9 0.0 0.0 0.00 0.00 0.00 40 1007.2
20260508184527 13 354 0.0 0.0 0.00 0.00 0.00 34 1007.4
20260508183024 13 338 0.0 0.0 0.00 0.00 0.00 36 1007.7
20260508181537 13 359 0.0 0.0 0.00 0.00 0.00 34 1007.7
20260508180010 13 14 0.0 0.0 0.00 0.00 0.00 33 1008.0
20260508174515 13 4 0.0 0.0 0.00 0.00 0.00 33 1008.3
20260508173004 13 32 0.0 0.0 0.00 0.00 0.00 34 1008.5
20260508171502 12 16 0.0 0.0 0.00 0.00 0.00 36 1008.7
20260508170059 12 310 0.0 0.0 0.00 0.00 0.00 44 1009.0
20260508164558 12 359 0.0 0.0 0.00 0.00 0.00 46 1009.1
20260508163053 11 354 0.0 0.0 0.00 0.00 0.00 50 1009.2
20260508161537 11 359 0.0 0.0 0.00 0.00 0.00 48 1009.3
20260508160039 11 10 0.0 0.0 0.00 0.00 0.00 47 1009.4
20260508154515 11 18 0.0 0.0 0.00 0.00 0.00 46 1009.5
20260508153014 11 274 0.0 0.0 0.00 0.00 0.00 53 1009.6
20260508151606 10 312 0.0 0.0 0.00 0.00 0.00 51 1009.6
20260508150057 10 333 0.0 0.0 0.00 0.00 0.00 55 1009.8
20260508144558 9 337 0.0 0.0 0.00 0.00 0.00 66 1009.9
20260508143054 8 337 0.0 0.0 0.00 0.00 0.00 65 1009.9
20260508141558 8 257 0.0 0.0 0.00 0.00 0.00 66 1010.0
20260508140055 8 301 0.0 0.0 0.00 0.00 0.00 67 1009.9
20260508134547 8 301 0.0 0.0 0.00 0.00 0.00 67 1010.0
20260508133050 8 220 0.0 0.0 0.00 0.00 0.00 71 1010.1
20260508131529 8 247 0.0 0.0 0.00 0.00 0.00 71 1010.0
20260508130027 8 247 0.0 0.0 0.00 0.00 0.00 73 1009.9
20260508124510 7 209 0.0 0.0 0.00 0.00 0.00 74 1009.7
20260508123009 7 203 0.0 0.0 0.00 0.00 0.00 74 1009.5
20260508121508 6 167 0.0 0.0 0.00 0.00 0.00 79 1009.4
20260508120007 6 162 0.0 0.0 0.00 0.00 0.00 84 1009.5
20260508114506 5 161 0.0 0.0 0.00 0.00 0.00 88 1009.4
20260508113007 3 161 0.0 0.0 0.00 0.00 0.00 89 1009.3
20260508111511 3 161 0.0 0.0 0.00 0.00 0.00 89 1009.3
20260508110007 3 161 0.0 0.0 0.00 0.00 0.00 89 1009.2
20260508104505 3 161 0.0 0.0 0.00 0.00 0.00 88 1009.2
20260508103009 3 161 0.0 0.0 0.00 0.00 0.00 87 1009.2
20260508101501 3 161 0.0 0.0 0.00 0.00 0.00 85 1009.1
20260508100058 4 161 0.0 0.0 0.00 0.00 0.00 84 1009.2
20260508094610 5 161 0.0 0.0 0.00 0.00 0.00 83 1009.3
20260508093056 5 161 0.0 0.0 0.00 0.00 0.00 82 1009.3
20260508091534 5 161 0.0 0.0 0.00 0.00 0.00 81 1009.3
20260508090037 5 161 0.0 0.0 0.00 0.00 0.00 81 1009.2
20260508084516 5 152 0.0 0.0 0.00 0.00 0.00 81 1009.3
20260508083016 5 147 0.0 0.0 0.00 0.00 0.00 81 1009.3
20260508081559 5 147 0.0 0.0 0.00 0.00 0.00 81 1009.0
20260508080058 5 103 0.0 0.0 0.00 0.00 0.00 82 1009.4
20260508074541 5 102 0.0 0.0 0.00 0.00 0.00 82 1009.2
20260508073040 5 102 0.0 0.0 0.00 0.00 0.00 82 1009.2
20260508071526 5 102 0.0 0.0 0.00 0.00 0.00 83 1009.4
20260508070021 5 102 0.0 0.0 0.00 0.00 0.00 83 1009.5
20260508064501 5 102 0.0 0.0 0.00 0.00 0.00 81 1009.7
20260508063103 5 102 0.0 0.0 0.00 0.00 0.00 80 1009.8
20260508061541 5 102 0.0 0.0 0.00 0.00 0.00 79 1009.9
20260508060039 5 102 0.0 0.0 0.00 0.00 0.00 78 1010.0
20260508054520 6 102 0.0 0.0 0.00 0.00 0.00 78 1010.0
20260508053023 6 102 0.0 0.0 0.00 0.00 0.00 74 1010.0
20260508051603 6 102 0.0 0.0 0.00 0.00 0.00 72 1010.1
20260508044542 7 102 0.0 0.0 0.00 0.00 0.00 69 1009.8
20260508043042 6 104 0.0 0.0 0.00 0.00 0.00 71 1009.9
20260508041520 6 120 0.0 0.0 0.00 0.00 0.00 73 1009.9
20260508040023 6 120 0.0 0.0 0.00 0.00 0.00 71 1010.0
20260508034603 6 120 0.0 0.0 0.00 0.00 0.00 72 1009.9